Sidney, NE

9:35 PM MDT on April 21, 2018 (GMT -0600)
Sidney Municipal

Weather History for KSNY - March, 2013

Change the Weather History Date:

Thursday, March 14, 2013

  Actual Average Record
Temperature  
Mean Temperature 55 °F 39 °F  
Max Temperature 73 °F 53 °F 77 °F (2003)
Min Temperature 37 °F 25 °F 3 °F (1958)
Degree Days  
Heating Degree Days 10 26  
Month to date heating degree days 387 391  
Since 1 July heating degree days 5117 4973  
Cooling Degree Days 0 0  
Month to date cooling degree days 0 0  
Year to date cooling degree days 0 0  
Moisture  
Dew Point 26 °F    
Average Humidity 40    
Maximum Humidity 64    
Minimum Humidity 16    
Precipitation  
Precipitation 0.00 in 0.03 in 0.70 in (1996)
Month to date precipitation 0.03 0.37  
Year to date precipitation 0.61 0.89  
Sea Level Pressure  
Sea Level Pressure 30.11 in    
Wind  
Wind Speed 11 mph (WNW)    
Max Wind Speed 20 mph    
Max Gust Speed 25 mph    
Visibility 10 miles    
Events      
T = Trace of Precipitation, MM = Missing Value Source: NWS Daily Summary

Daily Weather History Graph

Daily Weather History Graph

Search for Another Location

Airport or City:

Astronomy

Mar. 14, 2013 Rise Set
Actual Time 7:04 AM MDT 6:57 PM MDT
Civil Twilight 6:37 AM MDT 7:25 PM MDT
Nautical Twilight 6:05 AM MDT 7:57 PM MDT
Astronomical Twilight 5:33 AM MDT 8:29 PM MDT
Moon 8:18 AM MDT (3/14) 10:18 PM MDT (3/14)
Length of Visible Light 12h 47m
Length of Day
11h 53m
Waxing Crescent, 9% of the Moon is Illuminated
Mar 14
Waxing Crescent
Mar 19
First Quarter
Mar 27
Full
Apr 2
Last Quarter
Apr 10
New

Hourly Weather History & Observations

Time (MDT) Temp. Windchill Dew Point Humidity Pressure Visibility Wind Dir Wind Speed Gust Speed Precip Events Conditions
12:53 AM 45.0 °F 37.6 °F 28.9 °F 53% 30.11 in 10.0 mi West 17.3 mph - N/A   Clear
1:53 AM 42.1 °F 34.9 °F 28.9 °F 60% 30.13 in 10.0 mi West 13.8 mph - N/A   Clear
2:53 AM 42.1 °F 34.9 °F 28.9 °F 60% 30.13 in 10.0 mi West 13.8 mph - N/A   Clear
3:53 AM 42.1 °F 35.2 °F 30.0 °F 62% 30.12 in 10.0 mi WNW 12.7 mph - N/A   Clear
4:53 AM 44.1 °F 38.1 °F 30.0 °F 58% 30.13 in 10.0 mi WNW 11.5 mph - N/A   Clear
5:48 AM 24.8 °F 11.1 °F 12.2 °F 59% 29.85 in 10.0 mi West 18.4 mph 26.5 mph N/A   Mostly Cloudy
5:53 AM 39.9 °F 32.5 °F 30.0 °F 68% 30.16 in 10.0 mi West 12.7 mph - N/A   Clear
6:53 AM 39.9 °F 32.1 °F 28.9 °F 65% 30.20 in 10.0 mi WNW 13.8 mph - N/A   Clear
7:53 AM 43.0 °F 37.7 °F 30.0 °F 60% 30.23 in 10.0 mi WNW 9.2 mph - N/A   Clear
8:53 AM 51.1 °F - 28.9 °F 43% 30.23 in 10.0 mi WNW 15.0 mph - N/A   Clear
9:53 AM 59.0 °F - 28.9 °F 32% 30.23 in 10.0 mi WNW 13.8 mph - N/A   Clear
10:53 AM 64.0 °F - 25.0 °F 23% 30.20 in 10.0 mi NNW 5.8 mph - N/A   Clear
11:53 AM 64.9 °F - 24.1 °F 21% 30.18 in 10.0 mi SW 4.6 mph - N/A   Clear
12:53 PM 66.0 °F - 24.1 °F 20% 30.15 in 10.0 mi Variable 4.6 mph - N/A   Clear
1:53 PM 69.1 °F - 23.0 °F 18% 30.11 in 10.0 mi WSW 10.4 mph 20.7 mph N/A   Clear
2:53 PM 70.0 °F - 23.0 °F 17% 30.09 in 10.0 mi NW 10.4 mph 21.9 mph N/A   Clear
3:53 PM 72.0 °F - 23.0 °F 16% 30.06 in 10.0 mi West 15.0 mph 20.7 mph N/A   Clear
4:53 PM 72.0 °F - 23.0 °F 16% 30.03 in 10.0 mi NW 16.1 mph 24.2 mph N/A   Clear
5:53 PM 70.0 °F - 24.1 °F 18% 30.04 in 10.0 mi NW 12.7 mph - N/A   Clear
7:53 PM 51.1 °F - 24.1 °F 35% 30.08 in 10.0 mi WNW 9.2 mph - N/A   Clear
8:53 PM 48.9 °F - 21.9 °F 35% 30.06 in 10.0 mi West 9.2 mph - N/A   Clear
9:53 PM 50.0 °F - 25.0 °F 38% 30.04 in 10.0 mi WNW 11.5 mph - N/A   Clear
10:53 PM 46.9 °F - 26.1 °F 44% 30.03 in 10.0 mi West 10.4 mph - N/A   Clear
11:53 PM 48.9 °F - 27.0 °F 43% 30.00 in 10.0 mi West 8.1 mph - N/A   Clear